When you browse on this site, cookies collect data to enhance your experience and personalize the content and advertising you see.
Visit our Privacy Policy to learn more. By continuing to use the site, you agree to this use of cookies and data.
  • In United Kingdom
  • List of Countries
  • For 7 days
  • Water Temperature
  • Satellite Maps
  • Weather Map
  • Weather Widgets
  • user-avatar
    Login

    Hourly Weather Mevazor

    Today, 20 June, Thursday

    Time Temperature Precipitation Wind Pressure Humidity
    00:00 +25°C° 0 mm 2 mps 702 mmHg 29%
    01:00 +25°C° 0 mm 2 mps 702 mmHg 29%
    02:00 +24°C° 0 mm 2 mps 702 mmHg 30%
    03:00 +24°C° 0 mm 1 mps 702 mmHg 31%
    04:00 +23°C° 0 mm 1 mps 702 mmHg 33%
    05:00 +25°C° 0 mm 1 mps 702 mmHg 30%
    06:00 +27°C° 0 mm 2 mps 703 mmHg 27%
    07:00 +29°C° 0 mm 2 mps 703 mmHg 25%
    08:00 +31°C° 0 mm 2 mps 704 mmHg 22%
    09:00 +33°C° 0 mm 3 mps 704 mmHg 20%
    10:00 +35°C° 0 mm 4 mps 704 mmHg 18%
    11:00 +36°C° 0 mm 4 mps 704 mmHg 17%
    12:00 +36°C° 0 mm 3 mps 704 mmHg 16%
    13:00 +37°C° 0 mm 3 mps 704 mmHg 15%
    14:00 +37°C° 0 mm 4 mps 703 mmHg 15%
    15:00 +37°C° 0 mm 4 mps 703 mmHg 15%
    16:00 +37°C° 0 mm 4 mps 703 mmHg 15%
    17:00 +35°C° 0 mm 4 mps 703 mmHg 17%
    18:00 +33°C° 0 mm 4 mps 703 mmHg 19%
    19:00 +30°C° 0 mm 4 mps 703 mmHg 21%
    20:00 +29°C° 0 mm 4 mps 703 mmHg 21%
    21:00 +28°C° 0 mm 3 mps 703 mmHg 22%
    22:00 +27°C° 0 mm 3 mps 703 mmHg 23%
    23:00 +27°C° 0 mm 2 mps 702 mmHg 24%

    Tomorrow, 21 June, Friday

    Time Temperature Precipitation Wind Pressure Humidity
    00:00 +26°C° 0 mm 2 mps 702 mmHg 24%
    01:00 +26°C° 0 mm 2 mps 702 mmHg 25%
    02:00 +26°C° 0 mm 2 mps 702 mmHg 25%
    03:00 +25°C° 0 mm 2 mps 702 mmHg 26%
    04:00 +25°C° 0 mm 2 mps 702 mmHg 26%
    05:00 +27°C° 0 mm 2 mps 703 mmHg 24%
    06:00 +29°C° 0 mm 2 mps 703 mmHg 22%
    07:00 +31°C° 0 mm 2 mps 703 mmHg 20%
    08:00 +34°C° 0 mm 2 mps 704 mmHg 19%
    09:00 +35°C° 0 mm 2 mps 704 mmHg 17%
    10:00 +37°C° 0 mm 2 mps 704 mmHg 16%
    11:00 +37°C° 0 mm 3 mps 704 mmHg 15%
    12:00 +38°C° 0 mm 3 mps 704 mmHg 14%
    13:00 +39°C° 0 mm 3 mps 703 mmHg 13%
    14:00 +40°C° 0 mm 4 mps 703 mmHg 13%
    15:00 +40°C° 0 mm 4 mps 703 mmHg 12%
    16:00 +40°C° 0 mm 5 mps 703 mmHg 12%
    17:00 +37°C° 0 mm 4 mps 703 mmHg 14%
    18:00 +35°C° 0 mm 3 mps 703 mmHg 15%
    19:00 +33°C° 0 mm 3 mps 703 mmHg 16%
    20:00 +31°C° 0 mm 3 mps 703 mmHg 17%
    21:00 +29°C° 0 mm 2 mps 703 mmHg 18%
    22:00 +28°C° 0 mm 2 mps 703 mmHg 19%
    23:00 +28°C° 0 mm 2 mps 703 mmHg 20%

    Day after tomorrow, 22 June, Saturday

    Time Temperature Precipitation Wind Pressure Humidity
    00:00 +27°C° 0 mm 2 mps 703 mmHg 20%
    01:00 +26°C° 0 mm 2 mps 703 mmHg 21%
    02:00 +26°C° 0 mm 2 mps 703 mmHg 22%
    03:00 +26°C° 0 mm 2 mps 703 mmHg 23%
    04:00 +25°C° 0 mm 2 mps 703 mmHg 24%
    05:00 +27°C° 0 mm 2 mps 703 mmHg 22%
    06:00 +29°C° 0 mm 2 mps 704 mmHg 20%
    07:00 +31°C° 0 mm 2 mps 704 mmHg 19%
    08:00 +34°C° 0 mm 2 mps 704 mmHg 17%
    09:00 +35°C° 0 mm 3 mps 705 mmHg 16%
    10:00 +37°C° 0 mm 3 mps 705 mmHg 14%
    11:00 +37°C° 0 mm 3 mps 705 mmHg 13%
    12:00 +38°C° 0 mm 4 mps 705 mmHg 13%
    13:00 +40°C° 0 mm 4 mps 705 mmHg 12%
    14:00 +39°C° 0 mm 5 mps 705 mmHg 13%
    15:00 +39°C° 0 mm 5 mps 705 mmHg 14%
    16:00 +39°C° 0 mm 6 mps 704 mmHg 14%
    17:00 +36°C° 0 mm 5 mps 704 mmHg 17%
    18:00 +34°C° 0 mm 5 mps 704 mmHg 19%
    19:00 +32°C° 0 mm 4 mps 704 mmHg 22%
    20:00 +30°C° 0 mm 4 mps 704 mmHg 23%
    21:00 +29°C° 0 mm 4 mps 704 mmHg 24%
    22:00 +28°C° 0 mm 3 mps 704 mmHg 25%
    23:00 +27°C° 0 mm 3 mps 704 mmHg 26%

    23 June, Sunday

    Time Temperature Precipitation Wind Pressure Humidity
    00:00 +27°C° 0 mm 2 mps 704 mmHg 27%
    01:00 +26°C° 0 mm 2 mps 703 mmHg 28%
    02:00 +26°C° 0 mm 2 mps 703 mmHg 28%
    03:00 +26°C° 0 mm 2 mps 703 mmHg 28%
    04:00 +26°C° 0 mm 2 mps 703 mmHg 28%
    05:00 +27°C° 0 mm 2 mps 704 mmHg 26%
    06:00 +29°C° 0 mm 3 mps 704 mmHg 24%
    07:00 +30°C° 0 mm 3 mps 705 mmHg 23%
    08:00 +33°C° 0 mm 3 mps 705 mmHg 21%
    09:00 +34°C° 0 mm 4 mps 705 mmHg 19%
    10:00 +36°C° 0 mm 4 mps 706 mmHg 17%
    11:00 +37°C° 0 mm 4 mps 705 mmHg 16%
    12:00 +37°C° 0 mm 5 mps 705 mmHg 16%
    13:00 +39°C° 0 mm 5 mps 705 mmHg 15%
    14:00 +39°C° 0 mm 5 mps 705 mmHg 16%
    15:00 +38°C° 0 mm 6 mps 705 mmHg 16%
    16:00 +38°C° 0 mm 7 mps 705 mmHg 17%
    17:00 +35°C° 0 mm 6 mps 705 mmHg 20%
    18:00 +34°C° 0 mm 6 mps 705 mmHg 22%
    19:00 +32°C° 0 mm 5 mps 705 mmHg 24%
    20:00 +30°C° 0 mm 5 mps 705 mmHg 26%
    21:00 +29°C° 0 mm 5 mps 705 mmHg 28%
    22:00 +28°C° 0 mm 4 mps 705 mmHg 30%
    23:00 +28°C° 0 mm 4 mps 705 mmHg 29%

    24 June, Monday

    Time Temperature Precipitation Wind Pressure Humidity
    00:00 +27°C° 0 mm 4 mps 704 mmHg 28%
    01:00 +27°C° 0 mm 4 mps 704 mmHg 27%
    02:00 +26°C° 0 mm 4 mps 704 mmHg 27%
    03:00 +26°C° 0 mm 3 mps 704 mmHg 27%
    04:00 +26°C° 0 mm 3 mps 704 mmHg 27%
    05:00 +28°C° 0 mm 3 mps 705 mmHg 25%
    06:00 +30°C° 0 mm 3 mps 705 mmHg 23%
    07:00 +33°C° 0 mm 3 mps 705 mmHg 21%
    08:00 +34°C° 0 mm 2 mps 705 mmHg 19%
    09:00 +36°C° 0 mm 2 mps 705 mmHg 16%
    10:00 +38°C° 0 mm 2 mps 706 mmHg 14%
    11:00 +38°C° 0 mm 2 mps 705 mmHg 13%
    12:00 +39°C° 0 mm 3 mps 705 mmHg 12%
    13:00 +40°C° 0 mm 3 mps 705 mmHg 11%
    14:00 +40°C° 0 mm 4 mps 704 mmHg 11%
    15:00 +40°C° 0 mm 6 mps 704 mmHg 12%
    16:00 +39°C° 0 mm 7 mps 704 mmHg 13%
    17:00 +36°C° 0 mm 6 mps 704 mmHg 16%
    18:00 +34°C° 0 mm 5 mps 704 mmHg 19%
    19:00 +32°C° 0 mm 4 mps 703 mmHg 22%
    20:00 +30°C° 0 mm 3 mps 703 mmHg 23%
    21:00 +29°C° 0 mm 3 mps 703 mmHg 25%
    22:00 +28°C° 0 mm 3 mps 703 mmHg 26%
    23:00 +28°C° 0 mm 2 mps 703 mmHg 27%

    25 June, Tuesday

    Time Temperature Precipitation Wind Pressure Humidity
    00:00 +28°C° 0 mm 2 mps 703 mmHg 27%
    01:00 +27°C° 0 mm 2 mps 703 mmHg 27%
    02:00 +27°C° 0 mm 2 mps 703 mmHg 27%
    03:00 +26°C° 0 mm 2 mps 703 mmHg 28%
    04:00 +26°C° 0 mm 2 mps 703 mmHg 28%
    05:00 +28°C° 0 mm 2 mps 703 mmHg 25%
    06:00 +30°C° 0 mm 1 mps 704 mmHg 23%
    07:00 +32°C° 0 mm 1 mps 704 mmHg 20%
    08:00 +34°C° 0 mm 1 mps 704 mmHg 18%
    09:00 +37°C° 0 mm 2 mps 705 mmHg 16%
    10:00 +38°C° 0 mm 2 mps 705 mmHg 13%
    11:00 +39°C° 0 mm 3 mps 704 mmHg 12%
    12:00 +40°C° 0 mm 3 mps 704 mmHg 11%
    13:00 +41°C° 0 mm 4 mps 704 mmHg 10%
    14:00 +41°C° 0 mm 4 mps 704 mmHg 10%
    15:00 +40°C° 0 mm 3 mps 704 mmHg 10%
    16:00 +40°C° 0 mm 3 mps 703 mmHg 10%
    17:00 +38°C° 0 mm 3 mps 703 mmHg 12%
    18:00 +35°C° 0 mm 3 mps 703 mmHg 15%
    19:00 +33°C° 0 mm 4 mps 703 mmHg 18%
    20:00 +31°C° 0 mm 3 mps 703 mmHg 19%
    21:00 +30°C° 0 mm 3 mps 703 mmHg 19%
    22:00 +29°C° 0 mm 3 mps 703 mmHg 20%
    23:00 +28°C° 0 mm 2 mps 702 mmHg 21%
    Show more